Location: Unspecified
(0.0000°N, 0.0000°E)
Time: 17:07:50
(UTC+01:00)

Cosmos 1340 - Visible Passes

Search period start: 31 January 2015 00:00
Search period end: 10 February 2015 00:00
Orbit: 518 x 523 km, 81.2° (Epoch: 30 January)

Date Brightness Start Highest point End Pass type
(mag) Time Alt. Az. Time Alt. Az. Time Alt. Az.
31 Jan 4.6 20:54:40 10° SSW 20:58:07 30° W 21:00:31 16° NNW visible
01 Feb 4.2 20:40:56 10° SSW 20:44:32 36° W 20:48:05 10° NNW visible
02 Feb 3.9 20:27:14 10° SSW 20:30:57 44° W 20:34:38 10° NNW visible
03 Feb 3.5 20:13:34 10° SSW 20:17:21 54° W 20:21:07 10° N visible
04 Feb 3.1 19:59:55 10° SSW 20:03:46 66° W 20:07:35 10° N visible
05 Feb 2.8 19:46:17 10° S 19:50:09 82° W 19:54:00 10° N visible
06 Feb 2.7 19:32:40 10° S 19:36:32 82° E 19:40:24 10° N visible
